Regional Weather Roundup
Issued by NWS Newport/Morehead, NC

Home | Current Version | Previous Version | Text Only | Print | Product List | Glossary On
Versions: 1 2 3 4 5 6 7 8 9 10 11 12 13 14 15 16 17 18 19 20 21 22 23 24 25 26 27 28 29 30 31 32 33 34 35 36 37 38 39 40 41 42 43 44 45 46 47 48 49 50
000
ASUS42 KMHX 271022
RWRMHX
WEATHER ROUNDUP FOR EASTERN NORTH CAROLINA
NATIONAL WEATHER SERVICE NEWPORT/MOREHEAD CITY NC
600 AM EDT WED AUG 27 2014

NOTE: "FAIR" INDICATES FEW OR NO CLOUDS BELOW 12,000 FEET
WITH NO SIGNIFICANT WEATHER AND/OR OBSTRUCTIONS TO VISIBILITY

NCZ015>017-031-032-045>047-102-103-271100-
NORTH COAST

CITY           SKY/WX    TMP DP  RH WIND       PRES   REMARKS
EDENTON        FOG       68  67  98 N9        30.01R VSB 1/2
ELIZABETH CITY PTCLDY    70  68  94 N10       30.01R
KITTY HAWK     SUNNY     74  72  93 NE7       29.98R
MANTEO         CLEAR     73  72  94 NE10      29.99R

$$

NCZ045>047-081-094-103-104-271100-
CENTRAL COAST

CITY           SKY/WX    TMP DP  RH WIND       PRES   REMARKS
FRISCO         PTCLDY    74  74 100 NE12G20   29.95S
SWANQUARTER      N/A     70 N/A N/A N5        29.94S

$$

NCZ095-097-098-100-101-271100-
SOUTHERN COAST

CITY           SKY/WX    TMP DP  RH WIND       PRES   REMARKS
BEAUFORT       CLEAR     73  71  93 N10       29.95F
CEDAR ISLAND     N/A     75 N/A N/A N17       30.00S
JACKSONVILLE   CLOUDY    67  66  97 N6        29.98R
NEWPORT        NOT AVBL
PINEY ISLAND   SUNNY     77  73  87 NE17G23   29.95S
WILMINGTON     CLEAR     67  65  93 N6        29.98R


$$

NCZ011>013-027>030-043-044-078>080-089-090>093-098-271100-
COASTAL PLAIN

CITY           SKY/WX    TMP DP  RH WIND       PRES   REMARKS
AHOSKIE        CLOUDY    61  60  98 CALM      30.05R VSB 1
CLINTON        CLEAR     63  62  98 N3        30.03R
ELIZABETHTOWN  CLEAR     63  62  97 CALM      30.02R
GOLDSBORO      CLOUDY    64  64 100 N6        30.01S FOG
GREENVILLE     LGT RAIN  64  64 100 N6        30.03S VSB 3/4
HAVELOCK       MOCLDY    71  69  93 N10       29.98S
KENANSVILLE    PTCLDY    63  61  94 N3        30.02S
KINSTON        FOG       65  64  99 N8        30.02R VSB 1/2
NEW BERN       CLOUDY    71  67  87 N7        30.00R
RICHLANDS      CLEAR     64  61  88 CALM      30.00R
ROANOKE RAPIDS NOT AVBL
ROCKY MOUNT    FOG       63  62  97 N8        30.05R VSB 1/2
WASHINGTON     CLOUDY    66  66  99 NE8       30.01S VSB 1
WHITEVILLE     CLEAR     64  62  91 CALM      30.00R

$$

AMZ130-135-150-152-154-156-158-170-250-252-270-ANZ085-086-088-633-658-670-271100-
MARINE OBSERVATIONS

STATION/POSITION TIME  TEMP    WIND        PRES    WAVE   SWELL
                       AIR SEA DIR/SP/G            HT/PER HT/PER
                 (UTC) (F)     (DEG/KT/KT) (MB)    (FT/S) (FT/S)
CHESAPEAKE LIGHT 1000   73      20/ 14/ 16 1017.2
BUOY 44014       1000   77 78   50/ 14/ 16 1015.0    6/12   5/12
DUCK             1000   75 76   30/ 15/ 16 1014.9
2E DUCK          1000                        N/A     5/13   3/13
OREGON INLET     1000   75 78   20/ 12/ 17 1014.6
BUOY 44095       1000      76                N/A     6/12   3/12
20E OREGON INLET NOT AVBL
HATTERAS CG      1000   76 78   30/ 12/ 17 1014.6
DIAMOND BUOY     1000   77      10/ 19/ 23 1012.7    7/11   5/11
CAPE LOOKOUT     1000   74      20/ 13/ 17 1014.0
BEAUFORT LAB     1000   73 78   10/ 12/ 16 1013.9
30 SE NEW RIVER  1000   76 80   30/ 19/ 23 1013.8    7/ 8   3/11
5 SE WRIGHTSVILL 1000   70 80   20/ 16/ 17   N/A
BUOY 41002       0859   80 81  360/ 25/ 31 1006.5   12/ 9   5/13
BUOY 41004       1000   79 83   10/ 17/ 19 1013.4    7/10   5/10

$$



USA.gov is the U.S. government's official web portal to all federal, state and local government web resources and services.